Regional Weather Roundup
Issued by NWS

Home | Current Version | Previous Version | Graphics & Text | Print | Product List | Glossary On
Versions: 1 2 3 4 5 6 7 8 9 10 11 12 13 14 15 16 17 18 19 20 21 22 23 24 25 26 27 28 29 30 31 32 33 34 35 36 37 38 39 40 41 42 43 44 45 46 47 48 49 50
000
ASUS43 KDMX 290603
RWRIA

WEATHER ROUNDUP FOR IOWA
NATIONAL WEATHER SERVICE DES MOINES IA
100 AM CDT SUN MAY 29 2016

NOTE: "FAIR" INDICATES FEW OR NO CLOUDS BELOW 12,000 FEET WITH NO
SIGNIFICANT WEATHER AND/OR OBSTRUCTIONS TO VISIBILITY.

* - THESE STATIONS ARE NOT NWS STATIONS...THUS NOT UNDER NWS
QUALITY CONTROL.  THEY ALSO DO NOT REPORT WEATHER SUCH
AS PRECIPITATION OR FOG.

IAZ001>003-012>014-020>022-031>034-043>046-290700-
   NORTHWEST IOWA

CITY           SKY/WX    TMP DP  RH WIND       PRES   REMARKS
CARROLL *      CLOUDY    61  59  94 W10       29.94R
CHEROKEE *     MOCLDY    61  61 100 W5        29.94S
DENISON *      MOCLDY    61  57  88 SW6       29.95R
LE MARS *      PTCLDY    61  59  94 W7        29.97R
ORANGE CITY *  CLEAR     61  59  94 W12       29.96R
SHELDON *      CLOUDY    61  61 100 W10       29.93R
SIOUX CITY     CLOUDY    60  57  89 W7        29.97R
6HR MIN TEMP:  59; 6HR MAX TEMP:  66;

SPENCER        CLOUDY    60  58  92 W8        29.92R
6HR MIN TEMP:  60; 6HR MAX TEMP:  63; 6HR PCP:  0.35;

STORM LAKE *   CLEAR     59  59 100 W12       29.95R
$$

IAZ055>058-069>071-079>083-090>094-290700-
   SOUTHWEST IOWA

CITY           SKY/WX    TMP DP  RH WIND       PRES   REMARKS
ATLANTIC *     CLEAR     61  57  88 W7        29.98R
AUDUBON *      CLEAR     61  55  82 W5        29.97R
CLARINDA *       N/A     63  59  88 MISG      30.01R
COUNCIL BLFS * CLEAR     59  55  88 W5        29.99R
CRESTON *      CLEAR     61  57  88 W8        29.99R
HARLAN  *      CLEAR     59  57  94 W9        30.01R
LAMONI         CLEAR     61  59  93 SW9       29.98R
6HR MIN TEMP:  61; 6HR MAX TEMP:  71;

RED OAK *      CLEAR     61  55  82 W6        30.00R
SHENANDOAH *   CLEAR     64  61  88 W5        30.00R
$$

IAZ047>049-059>061-072>074-084-290700-
   CENTRAL IOWA

CITY           SKY/WX    TMP DP  RH WIND       PRES   REMARKS
AMES           PTCLDY    63  58  83 W16       29.90R
6HR MIN TEMP:  63; 6HR MAX TEMP:  71;

ANKENY *       CLEAR     64  57  77 W12       29.91S
BOONE *          N/A     63  59  88 W12G18    29.90R
CHARITON *     CLEAR     64  59  82 SW8       29.95R
DES MOINES     CLEAR     63  55  75 W12       29.91F
6HR MIN TEMP:  63; 6HR MAX TEMP:  74;

GRINNELL*      CLEAR     63  58  84 SW9       29.91S
KNOXVILLE *    CLEAR     64  59  82 SW10      29.92R
MARSHALLTOWN   PTCLDY    63  58  83 SW13      29.88R
6HR MIN TEMP:  63; 6HR MAX TEMP:  71; 6HR PCP: TRACE;

NEWTON *       PTCLDY    63  61  94 SW12      29.91S
PELLA *        CLEAR     63  59  85 SW8       29.93S
PERRY *        MOCLDY    63  59  88 W15       29.92S
$$

IAZ004>006-015-016-023>025-035-036-290700-
   NORTH CENTRAL IOWA

CITY           SKY/WX    TMP DP  RH WIND       PRES   REMARKS
ALGONA *       CLOUDY    63  61  94 W8        29.90R
CLARION *      LGT RAIN  63  63 100 W12       29.89R
ESTHERVILLE    CLOUDY    60  59  96 W10       29.91R
6HR MIN TEMP:  60; 6HR MAX TEMP:  62; 6HR PCP:  0.03;

FORT DODGE *   CLOUDY    63  57  82 W7        29.91S
MASON CITY     CLOUDY    61  60  97 W7        29.87R
6HR MIN TEMP:  61; 6HR MAX TEMP:  65; 6HR PCP:  0.02;

FOREST CITY *  CLOUDY    59  59 100 W7        29.87R
WEBSTER CITY * CLOUDY    63  63 100 W10       29.88R
IOWA FALLS *     N/A     63  60  91 W16       29.88R
$$

IAZ007>011-017>019-026>030-037>042-050>054-066-290700-
   NORTHEAST IOWA

CITY           SKY/WX    TMP DP  RH WIND       PRES   REMARKS
CEDAR RAPIDS   CLEAR     65  61  87 S10       29.90R
6HR MIN TEMP:  65; 6HR MAX TEMP:  72;

CHARLES CITY * CLOUDY    63  63 100 SW6       29.86R
DECORAH *      CLOUDY    63  61  94 S7        29.85S
DUBUQUE        CLOUDY    63  59  87 S8        29.92S
6HR MIN TEMP:  63; 6HR MAX TEMP:  74;

MONTICELLO *   PTCLDY    64  61  88 S7        29.91S
OELWEIN *      CLOUDY    63  63 100 S12       29.88S
WATERLOO       CLOUDY    64  58  80 SW14      29.85R
6HR MIN TEMP:  63; 6HR MAX TEMP:  71; 6HR PCP:  0.02;

$$

IAZ064-065-067-068-078-290700-
   EAST CENTRAL IOWA

CITY           SKY/WX    TMP DP  RH WIND       PRES   REMARKS
DAVENPORT      CLOUDY    67  60  78 S9        29.95S
6HR MIN TEMP:  66; 6HR MAX TEMP:  78;

IOWA CITY      CLEAR     67  60  78 SW7       29.93R
6HR MIN TEMP:  66; 6HR MAX TEMP:  76;

MT. PLEASANT * CLEAR     66  61  82 S6        29.96R
MUSCATINE *    CLEAR     68  59  73 SW9       29.95R
QUAD CITIES    MOCLDY    69  59  70 S8        29.94S
6HR MIN TEMP:  69; 6HR MAX TEMP:  80;

$$

IAZ062-063-075>077-085>089-095>099-290700-
   SOUTHEAST IOWA

CITY           SKY/WX    TMP DP  RH WIND       PRES   REMARKS
BURLINGTON     CLEAR     66  61  84 SW7       29.97R
6HR MIN TEMP:  66; 6HR MAX TEMP:  78;

FAIRFIELD *      N/A    N/A N/A N/A MISG        N/A
FORT MADISON * CLEAR     66  61  82 SW6       29.98S
KEOKUK *       CLEAR     64  59  82 SW6       29.97S
OSKALOOSA *      N/A     64  59  82 SW10      29.93R
OTTUMWA        CLEAR     66  59  78 SW12      29.93R
6HR MIN TEMP:  66; 6HR MAX TEMP:  73;

WASHINGTON *   CLEAR     64 N/A N/A S10       29.95R
$$

ABBREVIATIONS USED IN REMARKS
   TC - TEMPERATURES IN CELSIUS
  WCI - WIND CHILL INDEX
   HX - HEAT INDEX
  VSB - VISIBILITY
$$





USA.gov is the U.S. government's official web portal to all federal, state and local government web resources and services.